UC IPM Online UC ANR home page UC IPM home page

UC IPM Home

SKIP navigation

 

How to Manage Pests

Interactive Tools and Models:
Grape Powdery Mildew Risk Assessment Index

RAI report for LODI-01.P (LOD)

Time period: March 11, 2014, to September 29, 2014,
retrieved on October 25, 2014.
Choose year
Graph of RAI for LODI-01.P
Date RAI Disease pressure Pathogen status Hours
70° ≤ Temp ≤ 85°
Hours
Temp > 95°
Notes
03/11/2014 0 n/a no infection 1.9 0.00  
03/12/2014 20 n/a no infection 6.4 0.00  
03/13/2014 40 n/a no infection 6.5 0.00  
03/14/2014 0 n/a no infection 2.7 0.00  
03/15/2014 20 n/a no infection 6.9 0.00  
03/16/2014 40 n/a no infection 7.8 0.00  
03/17/2014 0 n/a no infection 0.0 0.00  
03/18/2014 0 n/a no infection .2 0.00  
03/19/2014 0 n/a no infection 5.3 0.00  
03/20/2014 20 n/a no infection 6.6 0.00  
03/21/2014 0 n/a no infection 5.6 0.00  
03/22/2014 0 n/a no infection 5.5 0.00  
03/23/2014 0 n/a no infection 5.8 0.00  
03/24/2014 20 n/a no infection 7.6 0.00  
03/25/2014 0 n/a no infection 0.0 0.00  
03/26/2014 0 n/a no infection 0.0 0.00  
03/27/2014 0 n/a no infection 0.0 0.00  
03/28/2014 0 n/a no infection .9 0.00  
03/29/2014 0 n/a no infection 0.0 0.00  
03/30/2014 0 n/a no infection 0.0 0.00  
03/31/2014 0 n/a no infection 0.0 0.00  
04/01/2014 0 n/a no infection 0.0 0.00  
04/02/2014 0 n/a no infection 0.0 0.00  
04/03/2014 0 n/a no infection 0.0 0.00  
04/04/2014 0 n/a no infection 0.0 0.00  
04/05/2014 0 n/a no infection 0.0 0.00  
04/06/2014 20 n/a no infection 6.6 0.00  
04/07/2014 40 n/a no infection 9.4 0.00  
04/08/2014 60 high reproduces every 5 days 9.5 0.00  
04/09/2014 80 high reproduces every 5 days 9.5 0.00  
04/10/2014 100 high reproduces every 5 days 8.6 0.00  
04/11/2014 100 high reproduces every 5 days 7.5 0.00  
04/12/2014 90 high reproduces every 5 days 4.8 0.00  
04/13/2014 100 high reproduces every 5 days 6.5 0.00  
04/14/2014 100 high reproduces every 5 days 8.3 0.00  
04/15/2014 100 high reproduces every 5 days 9.0 0.00  
04/16/2014 100 high reproduces every 5 days 9.4 0.00  
04/17/2014 90 high reproduces every 5 days 3.8 0.00  
04/18/2014 100 high reproduces every 5 days 8.2 0.00  
04/19/2014 100 high reproduces every 5 days 6.6 0.00  
04/20/2014 100 high reproduces every 5 days 9.3 0.00  
04/21/2014 100 high reproduces every 5 days 9.2 0.00  
04/22/2014 90 high reproduces every 5 days .8 0.00  
04/23/2014 80 high reproduces every 5 days 5.3 0.00  
04/24/2014 70 high reproduces every 5 days 4.1 0.00  
04/25/2014 60 high reproduces every 5 days 0.0 0.00  
04/26/2014 50 intermediate reproduces every 15 days 0.0 0.00  
04/27/2014 40 intermediate reproduces every 15 days .1 0.00  
04/28/2014 60 high reproduces every 5 days 7.5 0.00  
04/29/2014 80 high reproduces every 5 days 9.0 0.00  
04/30/2014 70 high reproduces every 5 days 2.8 0.00  
05/01/2014 60 high reproduces every 5 days 2.5 0.00  
05/02/2014 50 intermediate reproduces every 15 days 3.1 0.00  
05/03/2014 70 high reproduces every 5 days 7.4 0.00  
05/04/2014 90 high reproduces every 5 days 7.1 0.00  
05/05/2014 80 high reproduces every 5 days 4.5 0.00  
05/06/2014 100 high reproduces every 5 days 6.4 0.00  
05/07/2014 100 high reproduces every 5 days 6.9 0.00  
05/08/2014 90 high reproduces every 5 days 2.3 0.00  
05/09/2014 100 high reproduces every 5 days 7.6 0.00  
05/10/2014 100 high reproduces every 5 days 7.0 0.00  
05/11/2014 100 high reproduces every 5 days 9.7 0.00  
05/12/2014 90 high reproduces every 5 days 4.0 0.00  
05/13/2014 80 high reproduces every 5 days 2.8 0.00  
05/14/2014 70 high reproduces every 5 days 2.5 1.55  
05/15/2014 60 high reproduces every 5 days 3.2 2.83  
05/16/2014 50 intermediate reproduces every 15 days 3.2 0.00  
05/17/2014 70 high reproduces every 5 days 10.3 0.00  
05/18/2014 90 high reproduces every 5 days 8.5 0.00  
05/19/2014 80 high reproduces every 5 days 5.6 0.00  
05/20/2014 70 high reproduces every 5 days 5.5 0.00  
05/21/2014 90 high reproduces every 5 days 10.2 0.00  
05/22/2014 80 high reproduces every 5 days 4.7 0.00  
05/23/2014 70 high reproduces every 5 days 3.2 0.00  
05/24/2014 60 high reproduces every 5 days 3.3 0.00  
05/25/2014 50 intermediate reproduces every 15 days 3.6 2.61  
05/26/2014 40 intermediate reproduces every 15 days 3.4 .45  
05/27/2014 30 intermediate reproduces every 15 days 4.1 0.00  
05/28/2014 50 intermediate reproduces every 15 days 10.3 0.00  
05/29/2014 40 intermediate reproduces every 15 days 4.7 0.00  
05/30/2014 30 intermediate reproduces every 15 days 4.9 0.00  
05/31/2014 20 low is present 4.1 0.00  
06/01/2014 10 low is present 3.1 0.00  
06/02/2014 30 intermediate reproduces every 15 days 9.2 0.00  
06/03/2014 20 low is present 4.3 0.00  
06/04/2014 10 low is present 3.2 0.00  
06/05/2014 0 low is present 3.4 .36  
06/06/2014 0 low is present 3.4 0.00  
06/07/2014 0 low is present 2.5 1.51  
06/08/2014 0 low is present 2.1 7.21  
06/09/2014 0 low is present 3.5 7.72  
06/10/2014 0 low is present 2.4 3.35  
06/11/2014 0 low is present 5.7 0.00  
06/12/2014 20 low is present 9.7 0.00  
06/13/2014 10 low is present 4.7 0.00  
06/14/2014 0 low is present 4.0 0.00  
06/15/2014 0 low is present 5.9 0.00  
06/16/2014 20 low is present 9.8 0.00  
06/17/2014 40 intermediate reproduces every 15 days 10.7 0.00  
06/18/2014 30 intermediate reproduces every 15 days 3.5 0.00  
06/19/2014 20 low is present 3.1 .26  
06/20/2014 10 low is present 3.9 .93  
06/21/2014 0 low is present 4.1 0.00  
06/22/2014 0 low is present 4.0 0.00  
06/23/2014 0 low is present 3.8 0.00  
06/24/2014 0 low is present 3.6 .20  
06/25/2014 20 low is present 10.7 0.00  
06/26/2014 40 intermediate reproduces every 15 days 10.3 0.00  
06/27/2014 30 intermediate reproduces every 15 days 4.0 0.00  
06/28/2014 20 low is present 4.1 0.00  
06/29/2014 10 low is present 3.0 3.58  
06/30/2014 0 low is present 3.4 6.75  
07/01/2014 0 low is present 3.2 0.00  
07/02/2014 0 low is present 3.6 0.00  
07/03/2014 0 low is present 3.8 .02  
07/04/2014 0 low is present 2.7 4.03  
07/05/2014 0 low is present 2.7 4.25  
07/06/2014 0 low is present 2.9 4.41  
07/07/2014 0 low is present 4.9 2.35  
07/08/2014 0 low is present 5.3 1.51  
07/09/2014 0 low is present 3.6 0.00  
07/10/2014 0 low is present 4.4 0.00  
07/11/2014 0 low is present 4.8 0.00  
07/12/2014 0 low is present 4.2 0.00  
07/13/2014 0 low is present 3.8 3.36  
07/14/2014 0 low is present 4.0 6.37  
07/15/2014 20 low is present 6.1 0.00  
07/16/2014 40 intermediate reproduces every 15 days 9.9 0.00  
07/17/2014 30 intermediate reproduces every 15 days 5.5 0.00  
07/18/2014 20 low is present 5.4 0.00  
07/19/2014 10 low is present 3.3 0.00  
07/20/2014 30 intermediate reproduces every 15 days 11.7 0.00  
07/21/2014 50 intermediate reproduces every 15 days 11.9 0.00  
07/22/2014 40 intermediate reproduces every 15 days 4.7 0.00  
07/23/2014 30 intermediate reproduces every 15 days 5.4 0.00  
07/24/2014 20 low is present 3.7 .82  
07/25/2014 10 low is present 2.8 6.46  
07/26/2014 0 low is present 4.8 6.67  
07/27/2014 0 low is present 5.1 4.56  
07/28/2014 0 low is present 5.3 2.43  
07/29/2014 0 low is present 4.0 3.71  
07/30/2014 0 low is present 4.2 4.71  
07/31/2014 0 low is present 4.2 4.48  
08/01/2014 0 low is present 3.8 5.99  
08/02/2014 0 low is present 2.9 2.69  
08/03/2014 20 low is present 6.4 0.00  
08/04/2014 40 intermediate reproduces every 15 days 11.6 0.00  
08/05/2014 60 high reproduces every 5 days 14.8 0.00  
08/06/2014 80 high reproduces every 5 days 14.8 0.00  
08/07/2014 70 high reproduces every 5 days 3.5 .61  
08/08/2014 60 high reproduces every 5 days 3.6 .02  
08/09/2014 50 intermediate reproduces every 15 days 3.5 0.00  
08/10/2014 40 intermediate reproduces every 15 days 3.9 0.00  
08/11/2014 30 intermediate reproduces every 15 days 3.0 .94  
08/12/2014 20 low is present 4.0 0.00  
08/13/2014 10 low is present 3.8 0.00  
08/14/2014 0 low is present 3.3 0.00  
08/15/2014 0 low is present 3.3 0.00  
08/16/2014 0 low is present 3.1 .07  
08/17/2014 0 low is present 2.9 0.00  
08/18/2014 0 low is present 3.4 0.00  
08/19/2014 20 low is present 9.5 0.00  
08/20/2014 40 intermediate reproduces every 15 days 9.8 0.00  
08/21/2014 30 intermediate reproduces every 15 days 3.4 0.00  
08/22/2014 20 low is present 3.1 0.00  
08/23/2014 10 low is present 3.4 0.00  
08/24/2014 0 low is present 3.7 0.00  
08/25/2014 20 low is present 9.7 0.00  
08/26/2014 10 low is present 3.2 0.00  
08/27/2014 0 low is present 3.3 .87  
08/28/2014 0 low is present 3.0 3.02  
08/29/2014 0 low is present 4.7 0.00  
08/30/2014 0 low is present 4.3 1.46  
08/31/2014 0 low is present 3.6 0.00  
09/01/2014 0 low is present 2.6 4.84  
09/02/2014 0 low is present 2.9 .87  
09/03/2014 0 low is present 3.0 0.00  
09/04/2014 0 low is present 2.3 .07  
09/05/2014 0 low is present 4.3 0.00  
09/06/2014 0 low is present 3.4 0.00  
09/07/2014 0 low is present 3.4 0.00  
09/08/2014 20 low is present 8.8 0.00  
09/09/2014 10 low is present 3.6 0.00  
09/10/2014 0 low is present 2.0 3.07  
09/11/2014 0 low is present 2.4 4.38  
09/12/2014 0 low is present 3.4 4.98  
09/13/2014 0 low is present 4.1 4.84  
09/14/2014 0 low is present 2.6 2.83  
09/15/2014 0 low is present 3.0 0.00  
09/16/2014 0 low is present 3.8 0.00  
09/17/2014 0 low is present 3.0 0.00  
09/18/2014 20 low is present 11.1 0.00  
09/19/2014 10 low is present 3.9 0.00  
09/20/2014 0 low is present 3.7 0.00  
09/21/2014 20 low is present 9.2 0.00  
09/22/2014 10 low is present 3.8 0.00  
09/23/2014 0 low is present 3.1 0.00  
09/24/2014 0 low is present 3.7 0.00  
09/25/2014 0 low is present 3.2 0.00  
09/26/2014 20 low is present 6.1 0.00  
09/27/2014 40 intermediate reproduces every 15 days 8.0 0.00  
09/28/2014 30 intermediate reproduces every 15 days 2.0 0.00  
09/29/2014 50 intermediate reproduces every 15 days 8.4 0.00  

Top of page


Statewide IPM Program, Agriculture and Natural Resources, University of California
All contents copyright 2014 The Regents of the University of California. All rights reserved.

For noncommercial purposes only, any Web site may link directly to this page. FOR ALL OTHER USES or more information, read Legal Notices. Unfortunately, we cannot provide individual solutions to specific pest problems. See our Home page, or in the U.S., contact your local Cooperative Extension office for assistance.

Agriculture and Natural Resources, University of California

Accessibility   web template revised: October 25, 2014 Contact webmaster.